カタログに戻る

OPS 4029

運用中軍事MEO
NORAD 12930·PAYLOAD·🇺🇸 United States

打ち上げ Oct 31, 1981 から Cape Canaveral Space Force Station

Loading…

次のパス (今後24時間)

TLE

最新Source: Space-Track

元期: Sep 14, 2026, 05:50 UTC

1 12930U 81107A   26257.24344417 -.00000442  00000-0  00000-0 0  9994
2 12930   5.6461   2.4466 1042832  45.1067 154.4163  1.00349793  8765

AllMySatでOPS 4029をリアルタイム追跡

Download on the App Store